Time,TemperatureF,DewpointF,PressureIn,WindDirection,WindDirectionDegrees,WindSpeedMPH,WindSpeedGustMPH,Humidity,HourlyPrecipIn,Conditions,Clouds,dailyrainin,SoftwareType,DateUTC
2013-06-04 00:01:00,72.9,69.1,29.90,NW,315,0.4,1.6,88,0.00,,,0.00,WUHU216HW,2013-06-04 04:01:00,
2013-06-04 00:06:00,72.9,69.1,29.90,SE,135,0.4,1.6,88,0.00,,,0.00,WUHU216HW,2013-06-04 04:06:00,
2013-06-04 00:11:00,72.9,69.1,29.90,ESE,113,1.1,2.0,88,0.00,,,0.00,WUHU216HW,2013-06-04 04:11:00,
2013-06-04 00:16:00,72.9,69.1,29.90,ESE,113,0.2,2.0,88,0.00,,,0.00,WUHU216HW,2013-06-04 04:16:00,
2013-06-04 00:22:00,72.7,68.9,29.90,SSE,158,0.0,1.3,88,0.00,,,0.00,WUHU216HW,2013-06-04 04:22:00,
2013-06-04 00:27:00,72.5,68.8,29.90,SSW,203,0.4,1.3,88,0.00,,,0.00,WUHU216HW,2013-06-04 04:27:00,
2013-06-04 00:32:00,72.5,68.8,29.91,South,180,0.9,1.3,88,0.00,,,0.00,WUHU216HW,2013-06-04 04:32:00,
2013-06-04 00:37:00,72.5,68.8,29.91,SE,135,0.0,1.3,88,0.00,,,0.00,WUHU216HW,2013-06-04 04:37:00,
2013-06-04 00:42:00,72.5,68.8,29.91,SW,225,0.2,1.1,88,0.00,,,0.00,WUHU216HW,2013-06-04 04:42:00,
2013-06-04 00:47:00,72.7,68.9,29.91,SE,135,0.0,1.8,88,0.00,,,0.00,WUHU216HW,2013-06-04 04:47:00,
2013-06-04 00:52:00,72.5,68.8,29.91,SE,135,0.4,1.8,88,0.00,,,0.00,WUHU216HW,2013-06-04 04:52:00,
2013-06-04 00:57:00,72.5,68.8,29.91,SE,135,0.2,1.6,88,0.00,,,0.00,WUHU216HW,2013-06-04 04:57:00,
2013-06-04 01:02:00,72.4,68.6,29.91,SE,135,0.0,0.9,88,0.00,,,0.00,WUHU216HW,2013-06-04 05:02:00,
2013-06-04 01:07:00,72.4,68.6,29.91,SSE,158,0.4,0.7,88,0.00,,,0.00,WUHU216HW,2013-06-04 05:07:00,
2013-06-04 01:12:00,72.4,68.6,29.90,SE,135,0.0,0.7,88,0.00,,,0.00,WUHU216HW,2013-06-04 05:12:00,
2013-06-04 01:17:00,72.4,68.6,29.90,SE,135,0.0,0.7,88,0.00,,,0.00,WUHU216HW,2013-06-04 05:17:00,
2013-06-04 01:22:00,72.4,68.6,29.90,ESE,113,0.0,0.7,88,0.00,,,0.00,WUHU216HW,2013-06-04 05:22:00,
2013-06-04 01:27:00,72.2,68.4,29.90,South,180,0.0,0.7,88,0.00,,,0.00,WUHU216HW,2013-06-04 05:27:00,
2013-06-04 01:32:00,72.2,68.4,29.90,South,180,0.2,0.2,88,0.00,,,0.00,WUHU216HW,2013-06-04 05:32:00,
2013-06-04 01:37:00,72.4,68.6,29.90,SW,225,0.0,0.9,88,0.00,,,0.00,WUHU216HW,2013-06-04 05:37:00,
2013-06-04 01:42:00,72.4,68.6,29.89,South,180,0.4,1.1,88,0.00,,,0.00,WUHU216HW,2013-06-04 05:42:00,
2013-06-04 01:47:00,72.4,68.6,29.89,South,180,0.0,1.1,88,0.00,,,0.00,WUHU216HW,2013-06-04 05:47:00,
2013-06-04 01:52:00,72.4,68.6,29.89,South,180,0.2,2.0,88,0.00,,,0.00,WUHU216HW,2013-06-04 05:52:00,
2013-06-04 01:57:00,72.5,68.8,29.89,NW,315,0.4,2.0,88,0.00,,,0.00,WUHU216HW,2013-06-04 05:57:00,
2013-06-04 02:02:00,72.5,68.8,29.89,WSW,248,0.0,1.6,88,0.00,,,0.00,WUHU216HW,2013-06-04 06:02:00,
2013-06-04 02:07:00,72.4,68.6,29.89,WNW,293,0.0,1.1,88,0.00,,,0.00,WUHU216HW,2013-06-04 06:07:00,
2013-06-04 02:12:00,72.4,68.6,29.89,SW,225,0.0,1.1,88,0.00,,,0.00,WUHU216HW,2013-06-04 06:12:00,
2013-06-04 02:17:00,72.4,68.6,29.89,SE,135,0.4,1.1,88,0.00,,,0.00,WUHU216HW,2013-06-04 06:17:00,
2013-06-04 02:22:00,72.4,68.6,29.89,West,270,0.2,1.1,88,0.00,,,0.00,WUHU216HW,2013-06-04 06:22:00,
2013-06-04 02:27:00,72.4,68.6,29.89,West,270,0.2,0.9,88,0.00,,,0.00,WUHU216HW,2013-06-04 06:27:00,
2013-06-04 02:32:00,72.4,68.9,29.89,ESE,113,2.5,2.5,89,0.00,,,0.00,WUHU216HW,2013-06-04 06:32:00,
2013-06-04 02:37:00,72.4,68.9,29.89,WSW,248,0.4,2.5,89,0.00,,,0.00,WUHU216HW,2013-06-04 06:37:00,
2013-06-04 02:42:00,72.5,69.1,29.89,WNW,293,0.0,2.5,89,0.00,,,0.00,WUHU216HW,2013-06-04 06:42:00,
2013-06-04 02:47:00,72.5,69.1,29.89,West,270,0.0,1.8,89,0.00,,,0.00,WUHU216HW,2013-06-04 06:47:00,
2013-06-04 02:52:00,72.5,69.1,29.89,SE,135,0.7,1.8,89,0.00,,,0.00,WUHU216HW,2013-06-04 06:52:00,
2013-06-04 02:57:00,72.4,68.9,29.89,SSW,203,0.0,1.1,89,0.00,,,0.00,WUHU216HW,2013-06-04 06:57:00,
2013-06-04 03:02:00,72.2,68.8,29.89,SE,135,0.4,1.1,89,0.00,,,0.00,WUHU216HW,2013-06-04 07:02:00,
2013-06-04 03:07:00,72.4,68.9,29.89,West,270,0.4,1.3,89,0.00,,,0.00,WUHU216HW,2013-06-04 07:07:00,
2013-06-04 03:12:00,72.4,68.9,29.88,WSW,248,0.0,1.3,89,0.00,,,0.00,WUHU216HW,2013-06-04 07:12:00,
2013-06-04 03:17:00,72.5,69.1,29.89,WNW,293,0.2,1.3,89,0.00,,,0.00,WUHU216HW,2013-06-04 07:17:00,
2013-06-04 03:22:00,72.4,68.9,29.88,WSW,248,0.2,1.1,89,0.00,,,0.00,WUHU216HW,2013-06-04 07:22:00,
2013-06-04 03:27:00,72.4,68.9,29.88,WSW,248,0.0,1.8,89,0.00,,,0.00,WUHU216HW,2013-06-04 07:27:00,
2013-06-04 03:32:00,72.4,68.9,29.88,West,270,0.4,1.8,89,0.00,,,0.00,WUHU216HW,2013-06-04 07:32:00,
2013-06-04 03:37:00,72.5,69.1,29.88,WSW,248,0.4,0.9,89,0.00,,,0.00,WUHU216HW,2013-06-04 07:37:00,
2013-06-04 03:42:00,72.4,68.9,29.88,WSW,248,0.4,0.9,89,0.00,,,0.00,WUHU216HW,2013-06-04 07:42:00,
2013-06-04 03:47:00,72.4,68.9,29.88,West,270,0.0,0.9,89,0.00,,,0.00,WUHU216HW,2013-06-04 07:47:00,
2013-06-04 03:52:00,72.2,68.8,29.89,West,270,0.0,0.9,89,0.00,,,0.00,WUHU216HW,2013-06-04 07:52:00,
2013-06-04 03:57:00,72.0,68.6,29.89,West,270,0.0,0.4,89,0.00,,,0.00,WUHU216HW,2013-06-04 07:57:00,
2013-06-04 04:02:00,71.8,68.4,29.89,West,270,0.0,0.4,89,0.00,,,0.00,WUHU216HW,2013-06-04 08:02:00,
2013-06-04 04:07:00,71.8,68.4,29.88,West,270,0.0,0.4,89,0.00,,,0.00,WUHU216HW,2013-06-04 08:07:00,
2013-06-04 04:12:00,71.8,68.4,29.89,West,270,0.0,0.0,89,0.00,,,0.00,WUHU216HW,2013-06-04 08:12:00,
2013-06-04 04:17:00,71.6,68.2,29.88,West,270,0.0,0.0,89,0.00,,,0.00,WUHU216HW,2013-06-04 08:17:00,
2013-06-04 04:22:00,71.6,68.2,29.88,West,270,0.0,0.0,89,0.00,,,0.00,WUHU216HW,2013-06-04 08:22:00,
2013-06-04 04:27:00,71.5,68.0,29.88,West,270,0.0,0.0,89,0.00,,,0.00,WUHU216HW,2013-06-04 08:27:00,
2013-06-04 04:32:00,71.3,67.9,29.88,West,270,0.0,0.0,89,0.00,,,0.00,WUHU216HW,2013-06-04 08:32:00,
2013-06-04 04:37:00,71.3,67.9,29.88,West,270,0.0,0.0,89,0.00,,,0.00,WUHU216HW,2013-06-04 08:37:00,
2013-06-04 04:42:00,71.5,68.0,29.89,West,270,0.0,0.0,89,0.00,,,0.00,WUHU216HW,2013-06-04 08:42:00,
2013-06-04 04:47:00,71.5,68.0,29.89,West,270,0.0,0.0,89,0.00,,,0.00,WUHU216HW,2013-06-04 08:47:00,
2013-06-04 04:52:00,71.5,68.0,29.89,West,270,0.0,0.0,89,0.00,,,0.00,WUHU216HW,2013-06-04 08:52:00,
2013-06-04 04:57:00,71.6,68.2,29.89,West,270,0.0,0.0,89,0.00,,,0.00,WUHU216HW,2013-06-04 08:57:00,
2013-06-04 05:02:00,71.5,68.0,29.89,West,270,0.0,0.0,89,0.00,,,0.00,WUHU216HW,2013-06-04 09:02:00,
2013-06-04 05:07:00,71.3,67.9,29.89,West,270,0.0,0.0,89,0.00,,,0.00,WUHU216HW,2013-06-04 09:07:00,
2013-06-04 05:12:00,70.9,67.5,29.89,West,270,0.0,0.0,89,0.00,,,0.00,WUHU216HW,2013-06-04 09:12:00,
2013-06-04 05:17:00,70.9,67.5,29.89,West,270,0.0,0.0,89,0.00,,,0.00,WUHU216HW,2013-06-04 09:17:00,
2013-06-04 05:22:00,70.9,67.5,29.89,West,270,0.0,0.0,89,0.00,,,0.00,WUHU216HW,2013-06-04 09:22:00,
2013-06-04 05:27:00,70.9,67.1,29.89,West,270,0.0,0.0,88,0.00,,,0.00,WUHU216HW,2013-06-04 09:27:00,
2013-06-04 05:32:00,70.7,67.0,29.89,West,270,0.0,0.0,88,0.00,,,0.00,WUHU216HW,2013-06-04 09:32:00,
2013-06-04 05:37:00,70.7,67.0,29.89,West,270,0.0,0.0,88,0.00,,,0.00,WUHU216HW,2013-06-04 09:37:00,
2013-06-04 05:42:00,70.7,67.0,29.89,West,270,0.0,0.0,88,0.00,,,0.00,WUHU216HW,2013-06-04 09:42:00,
2013-06-04 05:47:00,70.9,67.1,29.90,West,270,0.0,0.0,88,0.00,,,0.00,WUHU216HW,2013-06-04 09:47:00,
2013-06-04 05:52:00,70.7,67.0,29.90,West,270,0.0,0.0,88,0.00,,,0.00,WUHU216HW,2013-06-04 09:52:00,
2013-06-04 05:57:00,70.7,67.0,29.90,West,270,0.0,0.0,88,0.00,,,0.00,WUHU216HW,2013-06-04 09:57:00,
2013-06-04 06:02:00,70.7,67.0,29.90,West,270,0.0,0.0,88,0.00,,,0.00,WUHU216HW,2013-06-04 10:02:00,
2013-06-04 06:07:00,70.6,66.8,29.90,West,270,0.0,0.0,88,0.00,,,0.00,WUHU216HW,2013-06-04 10:07:00,
2013-06-04 06:12:00,70.6,66.8,29.90,WSW,248,0.0,0.4,88,0.00,,,0.00,WUHU216HW,2013-06-04 10:12:00,
2013-06-04 06:17:00,70.7,67.0,29.90,WSW,248,0.0,0.4,88,0.00,,,0.00,WUHU216HW,2013-06-04 10:17:00,
2013-06-04 06:22:00,70.7,67.0,29.90,WSW,248,0.0,0.0,88,0.00,,,0.00,WUHU216HW,2013-06-04 10:22:00,
2013-06-04 06:27:00,70.9,67.1,29.90,WSW,248,0.0,0.0,88,0.00,,,0.00,WUHU216HW,2013-06-04 10:27:00,
2013-06-04 06:32:00,70.9,67.1,29.91,WSW,248,0.0,0.0,88,0.00,,,0.00,WUHU216HW,2013-06-04 10:32:00,
2013-06-04 06:37:00,71.1,67.3,29.91,WSW,248,0.0,0.0,88,0.00,,,0.00,WUHU216HW,2013-06-04 10:37:00,
2013-06-04 06:42:00,71.1,67.3,29.91,WSW,248,0.0,0.2,88,0.00,,,0.00,WUHU216HW,2013-06-04 10:42:00,
2013-06-04 06:47:00,71.1,67.3,29.91,SE,135,0.2,0.4,88,0.00,,,0.00,WUHU216HW,2013-06-04 10:47:00,
2013-06-04 06:52:00,71.3,67.5,29.91,SE,135,0.0,0.7,88,0.00,,,0.00,WUHU216HW,2013-06-04 10:52:00,
2013-06-04 06:57:00,71.5,67.7,29.91,SSE,158,0.0,0.7,88,0.00,,,0.00,WUHU216HW,2013-06-04 10:57:00,
2013-06-04 07:02:00,71.6,67.9,29.91,SSE,158,0.0,0.4,88,0.00,,,0.00,WUHU216HW,2013-06-04 11:02:00,
2013-06-04 07:07:00,71.8,68.0,29.92,SSE,158,0.0,0.0,88,0.00,,,0.00,WUHU216HW,2013-06-04 11:07:00,
2013-06-04 07:12:00,72.0,68.2,29.92,SSE,158,0.0,0.0,88,0.00,,,0.00,WUHU216HW,2013-06-04 11:12:00,
2013-06-04 07:17:00,72.2,68.4,29.92,SSE,158,0.0,0.2,88,0.00,,,0.00,WUHU216HW,2013-06-04 11:17:00,
2013-06-04 07:22:00,72.4,68.6,29.92,SSE,158,0.0,0.2,88,0.00,,,0.00,WUHU216HW,2013-06-04 11:22:00,
2013-06-04 07:27:00,72.7,68.9,29.92,SSE,158,0.0,0.2,88,0.00,,,0.00,WUHU216HW,2013-06-04 11:27:00,
2013-06-04 07:32:00,73.1,69.7,29.92,SW,225,0.0,1.1,89,0.00,,,0.00,WUHU216HW,2013-06-04 11:32:00,
2013-06-04 07:37:00,73.4,70.0,29.92,WNW,293,0.0,1.1,89,0.00,,,0.00,WUHU216HW,2013-06-04 11:37:00,
2013-06-04 07:42:00,73.6,70.2,29.93,South,180,0.2,0.9,89,0.00,,,0.00,WUHU216HW,2013-06-04 11:42:00,
2013-06-04 07:47:00,73.8,70.4,29.93,South,180,0.0,1.6,89,0.00,,,0.00,WUHU216HW,2013-06-04 11:47:00,
2013-06-04 07:52:00,73.8,70.7,29.93,SSE,158,0.0,1.6,90,0.00,,,0.00,WUHU216HW,2013-06-04 11:52:00,
2013-06-04 07:57:00,74.0,70.9,29.93,ESE,113,0.9,0.9,90,0.00,,,0.00,WUHU216HW,2013-06-04 11:57:00,
2013-06-04 08:02:00,74.2,70.7,29.93,SSW,203,0.2,1.1,89,0.00,,,0.00,WUHU216HW,2013-06-04 12:02:00,
2013-06-04 08:07:00,74.5,71.5,29.93,West,270,1.1,1.8,90,0.00,,,0.00,WUHU216HW,2013-06-04 12:07:00,
2013-06-04 08:12:00,74.5,71.5,29.94,SE,135,1.1,1.8,90,0.00,,,0.00,WUHU216HW,2013-06-04 12:12:00,
2013-06-04 08:17:00,74.7,71.6,29.94,SE,135,0.4,1.3,90,0.00,,,0.00,WUHU216HW,2013-06-04 12:17:00,
2013-06-04 08:22:00,74.9,71.8,29.94,SE,135,0.0,1.8,90,0.00,,,0.00,WUHU216HW,2013-06-04 12:22:00,
2013-06-04 08:27:00,75.1,72.0,29.94,WSW,248,2.7,2.7,90,0.00,,,0.00,WUHU216HW,2013-06-04 12:27:00,
2013-06-04 08:32:00,75.2,72.2,29.94,SE,135,1.1,2.7,90,0.00,,,0.00,WUHU216HW,2013-06-04 12:32:00,
2013-06-04 08:37:00,75.4,72.4,29.94,SW,225,0.2,2.7,90,0.00,,,0.00,WUHU216HW,2013-06-04 12:37:00,
2013-06-04 08:42:00,75.6,72.5,29.94,SE,135,0.4,1.1,90,0.00,,,0.00,WUHU216HW,2013-06-04 12:42:00,
2013-06-04 08:47:00,75.8,72.7,29.94,West,270,0.2,0.7,90,0.00,,,0.00,WUHU216HW,2013-06-04 12:47:00,
2013-06-04 08:52:00,76.0,72.9,29.95,SSE,158,0.2,1.6,90,0.00,,,0.00,WUHU216HW,2013-06-04 12:52:00,
2013-06-04 08:57:00,76.0,72.9,29.95,SSW,203,0.0,1.6,90,0.00,,,0.00,WUHU216HW,2013-06-04 12:57:00,
2013-06-04 09:02:00,76.1,73.1,29.95,NW,315,0.2,2.2,90,0.00,,,0.00,WUHU216HW,2013-06-04 13:02:00,
2013-06-04 09:07:00,76.3,73.3,29.95,SE,135,0.2,2.2,90,0.00,,,0.00,WUHU216HW,2013-06-04 13:07:00,
2013-06-04 09:12:00,76.5,73.4,29.95,SW,225,1.3,1.8,90,0.00,,,0.00,WUHU216HW,2013-06-04 13:12:00,
2013-06-04 09:17:00,76.5,73.4,29.95,SE,135,1.1,2.5,90,0.00,,,0.00,WUHU216HW,2013-06-04 13:17:00,
2013-06-04 09:22:00,76.7,73.6,29.95,WNW,293,1.1,2.5,90,0.00,,,0.00,WUHU216HW,2013-06-04 13:22:00,
2013-06-04 09:27:00,77.0,74.0,29.95,ESE,113,0.7,2.5,90,0.00,,,0.00,WUHU216HW,2013-06-04 13:27:00,
2013-06-04 09:32:00,77.2,74.2,29.95,West,270,2.0,3.4,90,0.00,,,0.00,WUHU216HW,2013-06-04 13:32:00,
2013-06-04 09:37:00,77.8,74.7,29.95,SE,135,0.4,3.8,90,0.00,,,0.00,WUHU216HW,2013-06-04 13:37:00,
2013-06-04 09:42:00,78.1,74.7,29.95,NNW,338,1.3,3.8,89,0.00,,,0.00,WUHU216HW,2013-06-04 13:42:00,
2013-06-04 09:47:00,79.0,75.6,29.95,West,270,1.1,2.5,89,0.00,,,0.00,WUHU216HW,2013-06-04 13:47:00,
2013-06-04 09:52:00,80.1,75.9,29.95,NW,315,2.5,3.4,87,0.00,,,0.00,WUHU216HW,2013-06-04 13:52:00,
2013-06-04 09:57:00,81.0,76.4,29.95,NW,315,0.7,3.4,86,0.00,,,0.00,WUHU216HW,2013-06-04 13:57:00,
2013-06-04 10:02:00,81.4,76.1,29.95,WSW,248,2.5,3.4,84,0.00,,,0.00,WUHU216HW,2013-06-04 14:02:00,
2013-06-04 10:07:00,81.7,76.4,29.95,WSW,248,1.8,4.0,84,0.00,,,0.00,WUHU216HW,2013-06-04 14:07:00,
2013-06-04 10:12:00,82.1,76.4,29.95,WSW,248,3.4,4.7,83,0.00,,,0.00,WUHU216HW,2013-06-04 14:12:00,
2013-06-04 10:17:00,82.8,77.1,29.95,West,270,1.1,4.7,83,0.00,,,0.00,WUHU216HW,2013-06-04 14:17:00,
2013-06-04 10:22:00,83.3,77.0,29.95,West,270,3.4,3.6,81,0.00,,,0.00,WUHU216HW,2013-06-04 14:22:00,
2013-06-04 10:27:00,83.7,77.6,29.95,SE,135,0.7,3.6,82,0.00,,,0.00,WUHU216HW,2013-06-04 14:27:00,
2013-06-04 10:32:00,84.8,78.3,29.95,SSE,158,2.0,3.6,81,0.00,,,0.00,WUHU216HW,2013-06-04 14:32:00,
2013-06-04 10:37:00,85.9,78.7,29.95,SSW,203,1.6,4.7,79,0.00,,,0.00,WUHU216HW,2013-06-04 14:37:00,
2013-06-04 10:42:00,85.7,77.2,29.95,NW,315,0.4,4.7,76,0.00,,,0.00,WUHU216HW,2013-06-04 14:42:00,
2013-06-04 10:47:00,85.1,76.7,29.95,West,270,1.8,3.6,76,0.00,,,0.00,WUHU216HW,2013-06-04 14:47:00,
2013-06-04 10:52:00,85.7,77.2,29.94,West,270,2.5,3.1,76,0.00,,,0.00,WUHU216HW,2013-06-04 14:52:00,
2013-06-04 10:57:00,86.2,77.4,29.95,SSE,158,2.9,2.9,75,0.00,,,0.00,WUHU216HW,2013-06-04 14:57:00,
2013-06-04 11:02:00,86.6,76.5,29.95,ESE,113,2.5,3.4,72,0.00,,,0.00,WUHU216HW,2013-06-04 15:02:00,
2013-06-04 11:07:00,86.2,76.6,29.95,NNW,338,0.9,3.4,73,0.00,,,0.00,WUHU216HW,2013-06-04 15:07:00,
2013-06-04 11:12:00,86.0,76.9,29.95,SSW,203,0.4,2.9,74,0.00,,,0.00,WUHU216HW,2013-06-04 15:12:00,
2013-06-04 11:17:00,86.2,77.4,29.95,South,180,0.4,2.2,75,0.00,,,0.00,WUHU216HW,2013-06-04 15:17:00,
2013-06-04 11:22:00,86.6,77.3,29.95,SSE,158,2.5,4.0,74,0.00,,,0.00,WUHU216HW,2013-06-04 15:22:00,
2013-06-04 11:27:00,86.9,77.7,29.95,SE,135,1.8,4.0,74,0.00,,,0.00,WUHU216HW,2013-06-04 15:27:00,
2013-06-04 11:32:00,88.0,77.0,29.95,WNW,293,3.4,3.8,70,0.00,,,0.00,WUHU216HW,2013-06-04 15:32:00,
2013-06-04 11:37:00,87.8,77.7,29.95,SSW,203,0.4,3.8,72,0.00,,,0.00,WUHU216HW,2013-06-04 15:37:00,
2013-06-04 11:42:00,88.2,78.0,29.95,West,270,1.8,3.4,72,0.00,,,0.00,WUHU216HW,2013-06-04 15:42:00,
2013-06-04 11:47:00,87.7,76.2,29.94,SSE,158,1.3,4.0,69,0.00,,,0.00,WUHU216HW,2013-06-04 15:47:00,
2013-06-04 11:52:00,87.1,75.8,29.94,West,270,4.7,4.7,69,0.00,,,0.00,WUHU216HW,2013-06-04 15:52:00,
2013-06-04 11:57:00,86.8,76.3,29.94,WSW,248,0.9,4.7,71,0.00,,,0.00,WUHU216HW,2013-06-04 15:57:00,
2013-06-04 12:02:00,86.8,75.4,29.94,NNE,23,0.9,4.7,69,0.00,,,0.00,WUHU216HW,2013-06-04 16:02:00,
2013-06-04 12:07:00,87.1,77.1,29.94,NNW,338,0.2,2.9,72,0.00,,,0.00,WUHU216HW,2013-06-04 16:07:00,
2013-06-04 12:12:00,88.0,77.0,29.94,WNW,293,2.0,3.6,70,0.00,,,0.00,WUHU216HW,2013-06-04 16:12:00,
2013-06-04 12:17:00,88.0,75.7,29.94,WNW,293,0.9,3.6,67,0.00,,,0.00,WUHU216HW,2013-06-04 16:17:00,
2013-06-04 12:22:00,88.9,77.5,29.94,West,270,0.4,2.5,69,0.00,,,0.00,WUHU216HW,2013-06-04 16:22:00,
2013-06-04 12:27:00,90.0,79.0,29.93,South,180,1.1,2.5,70,0.00,,,0.00,WUHU216HW,2013-06-04 16:27:00,
2013-06-04 12:32:00,90.7,76.9,29.93,NNW,338,3.4,3.6,64,0.00,,,0.00,WUHU216HW,2013-06-04 16:32:00,
2013-06-04 12:37:00,89.8,76.1,29.93,NNW,338,0.2,3.6,64,0.00,,,0.00,WUHU216HW,2013-06-04 16:37:00,
2013-06-04 12:42:00,89.3,77.0,29.93,SE,135,0.9,5.4,67,0.00,,,0.00,WUHU216HW,2013-06-04 16:42:00,
2013-06-04 12:47:00,88.9,77.1,29.93,SW,225,1.1,5.4,68,0.00,,,0.00,WUHU216HW,2013-06-04 16:47:00,
2013-06-04 12:52:00,88.6,76.2,29.93,West,270,4.0,4.9,67,0.00,,,0.00,WUHU216HW,2013-06-04 16:52:00,
2013-06-04 12:57:00,88.0,76.2,29.93,SSW,203,1.8,4.9,68,0.00,,,0.00,WUHU216HW,2013-06-04 16:57:00,
2013-06-04 13:02:00,87.7,76.2,29.93,SE,135,0.9,4.7,69,0.00,,,0.00,WUHU216HW,2013-06-04 17:02:00,
2013-06-04 13:07:00,87.3,76.0,29.93,ESE,113,1.8,4.3,69,0.00,,,0.00,WUHU216HW,2013-06-04 17:07:00,
2013-06-04 13:12:00,86.8,75.9,29.93,WSW,248,3.4,5.1,70,0.00,,,0.00,WUHU216HW,2013-06-04 17:12:00,
2013-06-04 13:17:00,87.1,77.1,29.93,SE,135,2.0,5.1,72,0.00,,,0.00,WUHU216HW,2013-06-04 17:17:00,
2013-06-04 13:22:00,87.5,75.6,29.93,SE,135,3.6,6.9,68,0.00,,,0.00,WUHU216HW,2013-06-04 17:22:00,
2013-06-04 13:27:00,87.1,76.2,29.93,SE,135,2.0,6.9,70,0.00,,,0.00,WUHU216HW,2013-06-04 17:27:00,
2013-06-04 13:32:00,87.3,76.0,29.92,WNW,293,2.0,5.4,69,0.00,,,0.00,WUHU216HW,2013-06-04 17:32:00,
2013-06-04 13:37:00,88.6,78.0,29.92,West,270,1.1,5.4,71,0.00,,,0.00,WUHU216HW,2013-06-04 17:37:00,
2013-06-04 13:42:00,89.3,76.4,29.92,SE,135,4.0,5.6,66,0.00,,,0.00,WUHU216HW,2013-06-04 17:42:00,
2013-06-04 13:47:00,90.0,76.7,29.92,SE,135,1.3,5.6,65,0.00,,,0.00,WUHU216HW,2013-06-04 17:47:00,
2013-06-04 13:52:00,90.2,76.3,29.92,East,90,5.4,5.4,64,0.00,,,0.00,WUHU216HW,2013-06-04 17:52:00,
2013-06-04 13:57:00,88.7,75.0,29.93,ESE,113,5.6,5.6,64,0.00,,,0.00,WUHU216HW,2013-06-04 17:57:00,
2013-06-04 14:02:00,87.5,73.8,29.93,SE,135,4.7,6.3,64,0.00,,,0.00,WUHU216HW,2013-06-04 18:02:00,
2013-06-04 14:07:00,86.6,74.4,29.93,SE,135,1.3,6.3,67,0.00,,,0.00,WUHU216HW,2013-06-04 18:07:00,
2013-06-04 14:12:00,86.0,74.4,29.93,WSW,248,3.4,6.3,68,0.00,,,0.00,WUHU216HW,2013-06-04 18:12:00,
2013-06-04 14:17:00,85.9,74.6,29.93,SE,135,1.8,6.3,69,0.00,,,0.00,WUHU216HW,2013-06-04 18:17:00,
2013-06-04 14:22:00,85.5,74.7,29.94,ESE,113,2.5,4.3,70,0.00,,,0.00,WUHU216HW,2013-06-04 18:22:00,
2013-06-04 14:27:00,85.0,74.2,29.94,ESE,113,1.1,4.9,70,0.00,,,0.00,WUHU216HW,2013-06-04 18:27:00,
2013-06-04 14:32:00,84.2,74.3,29.94,NW,315,3.1,4.9,72,0.00,,,0.00,WUHU216HW,2013-06-04 18:32:00,
2013-06-04 14:37:00,83.2,72.8,29.95,NW,315,0.4,5.4,71,0.00,,,0.00,WUHU216HW,2013-06-04 18:37:00,
2013-06-04 14:42:00,81.4,72.3,29.95,North,0,0.7,5.4,74,0.00,,,0.00,WUHU216HW,2013-06-04 18:42:00,
2013-06-04 14:47:00,79.9,72.1,29.96,NNE,23,0.2,1.8,77,0.01,,,0.01,WUHU216HW,2013-06-04 18:47:00,
2013-06-04 14:52:00,78.8,71.8,29.96,NNE,23,0.4,1.3,79,0.07,,,0.07,WUHU216HW,2013-06-04 18:52:00,
2013-06-04 14:57:00,77.8,71.5,29.97,North,0,0.4,1.1,81,0.19,,,0.19,WUHU216HW,2013-06-04 18:57:00,
2013-06-04 15:02:00,76.9,70.6,29.97,NNW,338,0.4,1.1,81,0.30,,,0.30,WUHU216HW,2013-06-04 19:02:00,
2013-06-04 15:07:00,76.1,70.3,29.96,North,0,1.1,1.1,82,0.47,,,0.47,WUHU216HW,2013-06-04 19:07:00,
2013-06-04 15:12:00,75.6,69.8,29.95,NNW,338,0.0,1.1,82,0.64,,,0.64,WUHU216HW,2013-06-04 19:12:00,
2013-06-04 15:17:00,75.2,69.8,29.94,North,0,0.0,1.1,83,0.78,,,0.78,WUHU216HW,2013-06-04 19:17:00,
2013-06-04 15:22:00,75.1,69.6,29.93,SW,225,0.2,0.2,83,0.82,,,0.82,WUHU216HW,2013-06-04 19:22:00,
2013-06-04 15:27:00,75.1,69.6,29.92,West,270,0.9,1.6,83,0.84,,,0.84,WUHU216HW,2013-06-04 19:27:00,
2013-06-04 15:32:00,74.9,69.8,29.92,North,0,0.0,1.6,84,0.85,,,0.85,WUHU216HW,2013-06-04 19:32:00,
2013-06-04 15:37:00,74.7,69.6,29.92,WSW,248,0.4,1.8,84,0.85,,,0.85,WUHU216HW,2013-06-04 19:37:00,
2013-06-04 15:42:00,74.9,69.8,29.91,South,180,0.4,1.8,84,0.85,,,0.85,WUHU216HW,2013-06-04 19:42:00,
2013-06-04 15:47:00,75.1,69.9,29.91,SE,135,0.2,1.1,84,0.84,,,0.85,WUHU216HW,2013-06-04 19:47:00,
2013-06-04 15:52:00,75.4,70.3,29.91,SE,135,0.0,1.1,84,0.76,,,0.85,WUHU216HW,2013-06-04 19:52:00,
2013-06-04 15:57:00,75.8,71.0,29.91,SSW,203,1.1,1.3,85,0.66,,,0.85,WUHU216HW,2013-06-04 19:57:00,
2013-06-04 16:02:00,76.0,71.2,29.90,SE,135,1.8,2.9,85,0.51,,,0.85,WUHU216HW,2013-06-04 20:02:00,
2013-06-04 16:07:00,76.1,71.3,29.90,WSW,248,1.6,2.9,85,0.37,,,0.85,WUHU216HW,2013-06-04 20:07:00,
2013-06-04 16:12:00,76.7,71.8,29.90,WNW,293,0.2,2.5,85,0.21,,,0.85,WUHU216HW,2013-06-04 20:12:00,
2013-06-04 16:17:00,77.6,72.7,29.90,SSW,203,0.0,1.8,85,0.07,,,0.85,WUHU216HW,2013-06-04 20:17:00,
2013-06-04 16:22:00,78.7,73.8,29.90,SSE,158,0.7,1.8,85,0.02,,,0.85,WUHU216HW,2013-06-04 20:22:00,
2013-06-04 16:27:00,79.9,74.7,29.89,SE,135,0.2,1.1,84,0.01,,,0.85,WUHU216HW,2013-06-04 20:27:00,
2013-06-04 16:32:00,81.2,75.3,29.89,SE,135,0.2,1.3,82,0.00,,,0.85,WUHU216HW,2013-06-04 20:32:00,
2013-06-04 16:37:00,82.3,76.3,29.89,SW,225,1.1,1.3,82,0.00,,,0.85,WUHU216HW,2013-06-04 20:37:00,
2013-06-04 16:42:00,83.0,75.9,29.89,SE,135,3.4,3.4,79,0.00,,,0.85,WUHU216HW,2013-06-04 20:42:00,
2013-06-04 16:47:00,83.3,75.0,29.89,SE,135,2.9,3.4,76,0.00,,,0.85,WUHU216HW,2013-06-04 20:47:00,
2013-06-04 16:52:00,83.9,75.5,29.88,ESE,113,2.5,3.8,76,0.00,,,0.85,WUHU216HW,2013-06-04 20:52:00,
2013-06-04 16:57:00,84.1,75.7,29.89,SE,135,2.2,4.5,76,0.00,,,0.85,WUHU216HW,2013-06-04 20:57:00,
2013-06-04 17:02:00,84.2,75.8,29.89,ESE,113,2.5,4.5,76,0.00,,,0.85,WUHU216HW,2013-06-04 21:02:00,
2013-06-04 17:07:00,84.6,76.1,29.89,SE,135,1.6,4.0,76,0.00,,,0.85,WUHU216HW,2013-06-04 21:07:00,
2013-06-04 17:12:00,84.4,76.0,29.89,SE,135,1.8,4.0,76,0.00,,,0.85,WUHU216HW,2013-06-04 21:12:00,
2013-06-04 17:17:00,84.2,75.4,29.89,SSE,158,1.3,4.0,75,0.00,,,0.85,WUHU216HW,2013-06-04 21:17:00,
2013-06-04 17:22:00,83.9,75.5,29.89,ESE,113,2.5,4.0,76,0.00,,,0.85,WUHU216HW,2013-06-04 21:22:00,
2013-06-04 17:27:00,83.5,75.2,29.89,SE,135,1.6,3.4,76,0.00,,,0.85,WUHU216HW,2013-06-04 21:27:00,
2013-06-04 17:32:00,83.3,75.3,29.90,ESE,113,2.0,3.4,77,0.00,,,0.85,WUHU216HW,2013-06-04 21:32:00,
2013-06-04 17:37:00,83.3,75.3,29.89,ESE,113,2.9,3.4,77,0.00,,,0.85,WUHU216HW,2013-06-04 21:37:00,
2013-06-04 17:42:00,83.5,75.5,29.89,ESE,113,3.8,4.5,77,0.00,,,0.85,WUHU216HW,2013-06-04 21:42:00,
2013-06-04 17:47:00,83.7,76.2,29.89,SE,135,1.1,4.5,78,0.00,,,0.85,WUHU216HW,2013-06-04 21:47:00,
2013-06-04 17:52:00,84.1,76.1,29.89,SW,225,1.1,4.3,77,0.00,,,0.85,WUHU216HW,2013-06-04 21:52:00,
2013-06-04 17:57:00,84.1,76.1,29.90,ESE,113,0.7,3.8,77,0.00,,,0.85,WUHU216HW,2013-06-04 21:57:00,
2013-06-04 18:02:00,84.1,76.1,29.90,SE,135,0.9,3.4,77,0.00,,,0.85,WUHU216HW,2013-06-04 22:02:00,
2013-06-04 18:07:00,83.9,75.9,29.90,ESE,113,1.1,4.0,77,0.00,,,0.85,WUHU216HW,2013-06-04 22:07:00,
2013-06-04 18:12:00,83.5,75.2,29.90,SE,135,1.1,4.9,76,0.00,,,0.85,WUHU216HW,2013-06-04 22:12:00,
2013-06-04 18:17:00,83.3,75.0,29.91,SE,135,3.6,4.9,76,0.00,,,0.85,WUHU216HW,2013-06-04 22:17:00,
2013-06-04 18:22:00,83.2,75.3,29.91,SE,135,3.4,3.8,77,0.00,,,0.85,WUHU216HW,2013-06-04 22:22:00,
2013-06-04 18:27:00,83.2,74.8,29.91,SE,135,2.0,3.6,76,0.00,,,0.85,WUHU216HW,2013-06-04 22:27:00,
2013-06-04 18:32:00,83.0,74.6,29.91,SSW,203,1.1,3.4,76,0.00,,,0.85,WUHU216HW,2013-06-04 22:32:00,
2013-06-04 18:37:00,82.6,74.7,29.91,SE,135,0.9,2.0,77,0.00,,,0.85,WUHU216HW,2013-06-04 22:37:00,
2013-06-04 18:42:00,82.4,74.5,29.91,SSW,203,0.4,2.2,77,0.00,,,0.85,WUHU216HW,2013-06-04 22:42:00,
2013-06-04 18:47:00,82.3,74.3,29.92,SSW,203,0.4,2.2,77,0.00,,,0.85,WUHU216HW,2013-06-04 22:47:00,
2013-06-04 18:52:00,82.1,74.6,29.91,ESE,113,2.5,3.1,78,0.00,,,0.85,WUHU216HW,2013-06-04 22:52:00,
2013-06-04 18:58:00,81.7,74.3,29.92,SE,135,0.7,3.4,78,0.00,,,0.85,WUHU216HW,2013-06-04 22:58:00,
2013-06-04 19:03:00,81.5,74.4,29.91,ESE,113,1.8,4.0,79,0.00,,,0.85,WUHU216HW,2013-06-04 23:03:00,
2013-06-04 19:08:00,81.4,73.9,29.92,SE,135,1.3,4.0,78,0.00,,,0.85,WUHU216HW,2013-06-04 23:08:00,
2013-06-04 19:13:00,81.0,73.5,29.91,SE,135,2.5,2.9,78,0.00,,,0.85,WUHU216HW,2013-06-04 23:13:00,
2013-06-04 19:18:00,81.0,74.0,29.91,SE,135,1.8,4.3,79,0.00,,,0.85,WUHU216HW,2013-06-04 23:18:00,
2013-06-04 19:23:00,80.6,73.6,29.91,West,270,2.2,5.4,79,0.00,,,0.85,WUHU216HW,2013-06-04 23:23:00,
2013-06-04 19:28:00,80.6,73.6,29.91,ESE,113,2.7,5.4,79,0.00,,,0.85,WUHU216HW,2013-06-04 23:28:00,
2013-06-04 19:33:00,80.3,73.3,29.91,SW,225,1.1,3.6,79,0.00,,,0.85,WUHU216HW,2013-06-04 23:33:00,
2013-06-04 19:38:00,79.9,72.5,29.91,ESE,113,1.8,4.3,78,0.00,,,0.85,WUHU216HW,2013-06-04 23:38:00,
2013-06-04 19:43:00,79.7,72.7,29.91,ESE,113,2.2,4.3,79,0.00,,,0.85,WUHU216HW,2013-06-04 23:43:00,
2013-06-04 19:48:00,79.6,72.6,29.91,SE,135,1.6,3.8,79,0.00,,,0.85,WUHU216HW,2013-06-04 23:48:00,
2013-06-04 19:53:00,79.6,72.6,29.91,ESE,113,1.3,4.0,79,0.00,,,0.85,WUHU216HW,2013-06-04 23:53:00,
2013-06-04 19:58:00,79.4,72.4,29.91,SE,135,1.8,4.0,79,0.00,,,0.85,WUHU216HW,2013-06-04 23:58:00,
2013-06-04 20:03:00,79.2,72.2,29.91,SSE,158,0.9,2.2,79,0.00,,,0.85,WUHU216HW,2013-06-05 00:03:00,
2013-06-04 20:08:00,79.2,72.5,29.91,ESE,113,1.8,3.6,80,0.00,,,0.85,WUHU216HW,2013-06-05 00:08:00,
2013-06-04 20:13:00,79.0,72.4,29.91,ESE,113,1.8,3.6,80,0.00,,,0.85,WUHU216HW,2013-06-05 00:13:00,
2013-06-04 20:18:00,78.8,72.2,29.91,SE,135,0.0,1.8,80,0.00,,,0.85,WUHU216HW,2013-06-05 00:18:00,
2013-06-04 20:23:00,78.7,72.0,29.91,SE,135,1.1,2.0,80,0.00,,,0.85,WUHU216HW,2013-06-05 00:23:00,
2013-06-04 20:28:00,78.5,72.2,29.92,SE,135,0.7,2.0,81,0.00,,,0.85,WUHU216HW,2013-06-05 00:28:00,
2013-06-04 20:33:00,78.3,72.0,29.92,SE,135,0.9,1.8,81,0.00,,,0.85,WUHU216HW,2013-06-05 00:33:00,
2013-06-04 20:38:00,78.1,71.8,29.92,SE,135,0.0,1.6,81,0.00,,,0.85,WUHU216HW,2013-06-05 00:38:00,
2013-06-04 20:43:00,78.1,71.8,29.92,SE,135,0.2,1.3,81,0.00,,,0.85,WUHU216HW,2013-06-05 00:43:00,
2013-06-04 20:48:00,77.9,72.0,29.93,SW,225,0.9,1.3,82,0.00,,,0.85,WUHU216HW,2013-06-05 00:48:00,
2013-06-04 20:53:00,77.9,72.0,29.94,WSW,248,0.4,1.1,82,0.00,,,0.85,WUHU216HW,2013-06-05 00:53:00,
2013-06-04 20:58:00,77.8,71.8,29.94,South,180,0.4,1.1,82,0.00,,,0.85,WUHU216HW,2013-06-05 00:58:00,
2013-06-04 21:03:00,77.8,71.8,29.95,SSE,158,0.2,0.7,82,0.00,,,0.85,WUHU216HW,2013-06-05 01:03:00,
2013-06-04 21:08:00,77.6,72.0,29.95,South,180,0.0,1.3,83,0.00,,,0.85,WUHU216HW,2013-06-05 01:08:00,
2013-06-04 21:13:00,77.6,72.0,29.95,WSW,248,0.7,1.3,83,0.00,,,0.85,WUHU216HW,2013-06-05 01:13:00,
2013-06-04 21:18:00,77.4,71.8,29.95,West,270,0.0,1.6,83,0.00,,,0.85,WUHU216HW,2013-06-05 01:18:00,
2013-06-04 21:23:00,77.4,71.8,29.95,West,270,0.0,1.6,83,0.00,,,0.85,WUHU216HW,2013-06-05 01:23:00,
2013-06-04 21:28:00,77.4,71.8,29.95,SE,135,1.1,1.1,83,0.00,,,0.85,WUHU216HW,2013-06-05 01:28:00,
2013-06-04 21:33:00,77.4,71.8,29.95,SW,225,0.0,1.1,83,0.00,,,0.85,WUHU216HW,2013-06-05 01:33:00,
2013-06-04 21:38:00,77.4,71.8,29.95,SSE,158,0.4,1.1,83,0.00,,,0.85,WUHU216HW,2013-06-05 01:38:00,
2013-06-04 21:43:00,77.4,72.2,29.95,SE,135,0.4,1.3,84,0.00,,,0.85,WUHU216HW,2013-06-05 01:43:00,
2013-06-04 21:48:00,77.2,72.0,29.95,West,270,1.8,1.8,84,0.00,,,0.85,WUHU216HW,2013-06-05 01:48:00,
2013-06-04 21:53:00,77.0,71.8,29.95,SSE,158,0.0,1.8,84,0.00,,,0.85,WUHU216HW,2013-06-05 01:53:00,
2013-06-04 21:58:00,77.0,72.2,29.96,WSW,248,0.0,1.8,85,0.00,,,0.85,WUHU216HW,2013-06-05 01:58:00,
2013-06-04 22:03:00,77.0,72.2,29.96,WSW,248,0.0,0.7,85,0.00,,,0.85,WUHU216HW,2013-06-05 02:03:00,
2013-06-04 22:08:00,77.0,72.2,29.96,SSW,203,0.0,0.4,85,0.00,,,0.85,WUHU216HW,2013-06-05 02:08:00,
2013-06-04 22:13:00,77.0,72.2,29.96,SW,225,0.0,0.4,85,0.00,,,0.85,WUHU216HW,2013-06-05 02:13:00,
2013-06-04 22:18:00,76.9,72.0,29.96,SW,225,0.0,1.1,85,0.00,,,0.85,WUHU216HW,2013-06-05 02:18:00,
2013-06-04 22:23:00,76.7,71.8,29.97,SW,225,0.0,1.1,85,0.00,,,0.85,WUHU216HW,2013-06-05 02:23:00,
2013-06-04 22:28:00,76.7,71.8,29.96,SW,225,0.0,0.7,85,0.00,,,0.85,WUHU216HW,2013-06-05 02:28:00,
2013-06-04 22:33:00,76.7,71.8,29.96,WSW,248,1.6,1.6,85,0.00,,,0.85,WUHU216HW,2013-06-05 02:33:00,
2013-06-04 22:38:00,76.7,71.8,29.96,SE,135,0.7,1.6,85,0.00,,,0.85,WUHU216HW,2013-06-05 02:38:00,
2013-06-04 22:43:00,76.7,71.8,29.96,South,180,0.4,1.6,85,0.00,,,0.85,WUHU216HW,2013-06-05 02:43:00,
2013-06-04 22:48:00,76.3,71.8,29.95,WSW,248,0.7,2.0,86,0.00,,,0.85,WUHU216HW,2013-06-05 02:48:00,
2013-06-04 22:53:00,76.1,71.6,29.95,South,180,1.1,2.0,86,0.00,,,0.85,WUHU216HW,2013-06-05 02:53:00,
2013-06-04 22:58:00,76.0,71.5,29.95,ESE,113,0.0,2.5,86,0.00,,,0.85,WUHU216HW,2013-06-05 02:58:00,
2013-06-04 23:03:00,76.0,71.2,29.95,West,270,0.4,2.5,85,0.00,,,0.85,WUHU216HW,2013-06-05 03:03:00,
2013-06-04 23:08:00,76.0,71.5,29.95,SSE,158,0.4,1.6,86,0.00,,,0.85,WUHU216HW,2013-06-05 03:08:00,
2013-06-04 23:13:00,75.8,71.0,29.95,South,180,0.0,1.6,85,0.00,,,0.85,WUHU216HW,2013-06-05 03:13:00,
2013-06-04 23:18:00,75.8,71.0,29.95,SE,135,0.4,1.1,85,0.00,,,0.85,WUHU216HW,2013-06-05 03:18:00,
2013-06-04 23:23:00,75.6,70.8,29.95,SSW,203,0.2,0.9,85,0.00,,,0.85,WUHU216HW,2013-06-05 03:23:00,
2013-06-04 23:28:00,75.6,70.8,29.95,WSW,248,0.4,1.1,85,0.00,,,0.85,WUHU216HW,2013-06-05 03:28:00,
2013-06-04 23:33:00,75.4,70.7,29.95,ESE,113,0.4,1.3,85,0.00,,,0.85,WUHU216HW,2013-06-05 03:33:00,
2013-06-04 23:38:00,75.4,70.7,29.95,West,270,0.4,1.8,85,0.00,,,0.85,WUHU216HW,2013-06-05 03:38:00,
2013-06-04 23:43:00,75.2,70.8,29.95,SSE,158,0.7,2.5,86,0.00,,,0.85,WUHU216HW,2013-06-05 03:43:00,
2013-06-04 23:48:00,75.2,70.8,29.94,West,270,2.5,2.5,86,0.00,,,0.85,WUHU216HW,2013-06-05 03:48:00,
2013-06-04 23:53:00,75.1,70.7,29.94,SE,135,0.2,2.5,86,0.00,,,0.85,WUHU216HW,2013-06-05 03:53:00,
2013-06-04 23:58:00,75.1,71.0,29.94,SE,135,0.7,3.6,87,0.00,,,0.85,WUHU216HW,2013-06-05 03:58:00,